Total_Precipitation_Accumulation
2.05 2.06 2.14 2.14 2.12 2.17 2.13 2.09 2.14 2.25 2.29 2.23 2.18 2.26 2.28 2.24 2.30 2.37 2.11 2.24 2.36 2.40 2.41 2.57 2.62 2.77 2.87 2.86 2.98 3.16 3.49 3.78 3.37 2.69 2.53 2.50 2.66 2.61 2.48 2.20 1.96 1.88 1.71
2.06 2.19 2.38 2.41 2.42 2.36 2.14 2.04 2.12 2.18 2.21 2.28 2.29 2.27 2.20 2.23 2.46 2.52 2.29 2.36 2.46 2.42 2.44 2.60 2.47 2.71 2.93 2.88 2.99 2.99 3.15 3.54 3.40 3.03 2.92 2.84 2.83 2.68 2.64 2.45 2.08 1.88 1.82
2.27 2.51 2.72 2.80 2.67 2.50 2.36 2.22 2.19 2.21 2.24 2.35 2.43 2.46 2.49 2.55 2.59 2.65 2.69 2.60 2.49 2.41 2.47 2.48 2.45 2.69 2.71 2.86 2.98 2.93 2.93 3.08 3.34 3.18 3.05 3.13 3.03 2.88 2.86 2.64 2.40 2.35 1.98
1.98 2.30 2.56 2.71 2.58 2.47 2.43 2.27 2.18 2.22 2.33 2.46 2.49 2.62 2.84 2.94 2.94 2.92 2.76 2.65 2.58 2.53 2.48 2.43 2.38 2.44 2.51 2.66 2.74 2.86 2.95 3.08 3.23 3.22 3.21 3.31 3.25 3.26 3.34 3.07 2.86 2.75 2.37
1.85 1.98 2.25 2.54 2.39 2.11 2.03 1.99 1.96 2.05 2.19 2.51 2.69 2.80 3.09 3.24 3.02 3.05 2.97 2.83 2.85 2.65 2.52 2.43 2.28 2.29 2.39 2.46 2.35 2.54 2.75 2.87 2.89 2.98 3.06 3.29 3.31 3.41 3.38 3.24 3.09 3.07 2.84
1.77 1.91 2.11 2.22 2.06 1.83 1.71 1.76 1.83 1.96 2.15 2.35 2.51 2.65 2.72 2.51 2.66 2.67 2.64 2.72 2.79 2.66 2.56 2.52 2.37 2.23 2.18 2.11 2.00 2.06 2.23 2.38 2.54 2.82 2.95 3.11 3.27 3.44 3.67 3.69 3.52 3.31 3.08
1.80 1.81 1.92 2.04 2.09 1.99 1.75 1.79 1.90 2.05 2.18 2.27 2.32 2.37 2.34 2.39 2.41 2.14 2.07 2.06 2.24 2.37 2.43 2.44 2.15 1.96 2.07 1.94 1.97 1.96 1.98 2.13 2.27 2.56 2.73 2.79 3.05 3.29 3.63 3.70 3.73 3.64 3.40
1.88 1.88 1.97 2.12 2.16 2.14 2.08 2.05 2.17 2.29 2.30 2.31 2.39 2.41 2.44 2.36 2.28 2.02 1.98 1.89 2.00 2.12 2.21 2.24 2.20 2.13 2.15 2.23 2.13 1.97 1.85 1.96 2.12 2.06 2.07 2.24 2.54 3.01 3.26 3.30 3.49 3.52 3.35
2.07 2.06 2.11 2.25 2.34 2.37 2.44 2.48 2.55 2.56 2.43 2.41 2.53 2.60 2.57 2.45 2.36 2.13 2.10 1.96 2.03 2.05 2.07 2.08 2.08 2.02 2.18 2.13 2.01 1.94 1.93 1.98 1.95 1.93 1.87 1.90 2.06 2.34 2.75 2.95 3.04 3.01 2.83
2.26 2.32 2.34 2.49 2.64 2.61 2.71 2.86 3.00 3.03 2.88 2.91 2.80 2.66 2.55 2.46 2.48 2.15 2.04 1.87 1.91 1.98 2.10 2.04 1.97 1.88 1.93 1.89 1.84 1.94 1.91 1.93 2.03 1.95 1.78 1.68 1.63 1.83 2.25 2.44 2.56 2.66 2.50
2.45 2.52 2.54 2.67 2.82 2.96 3.17 3.36 3.40 3.35 3.35 3.25 2.97 2.84 2.81 2.75 2.54 2.05 1.91 1.76 1.78 1.96 2.02 1.99 1.90 1.92 1.73 1.68 1.67 1.66 1.71 1.79 1.92 1.93 1.86 1.78 1.78 1.79 1.89 2.11 2.34 2.48 2.46
2.53 2.64 2.78 2.88 2.89 2.99 3.38 3.52 3.53 3.50 3.38 3.19 3.04 2.80 2.67 2.59 2.35 2.02 1.85 1.84 1.93 1.98 1.95 1.89 1.90 1.86 1.67 1.63 1.56 1.53 1.61 1.57 1.53 1.65 1.67 1.63 1.65 1.67 1.75 1.95 2.19 2.33 2.39
2.45 2.61 2.78 2.92 3.12 3.36 3.58 3.59 3.56 3.54 3.39 3.18 3.01 2.76 2.66 2.72 2.60 2.26 2.03 2.01 2.04 1.90 1.85 1.91 1.86 1.74 1.53 1.37 1.38 1.40 1.34 1.28 1.39 1.51 1.53 1.47 1.47 1.52 1.62 1.79 1.97 2.19 2.18
2.31 2.45 2.58 2.67 2.75 2.92 3.20 3.20 3.09 3.07 3.11 3.09 3.01 2.85 2.77 2.75 2.66 2.38 2.11 2.06 2.02 1.96 1.90 1.89 1.76 1.66 1.45 1.32 1.35 1.31 1.24 1.30 1.41 1.44 1.48 1.49 1.47 1.50 1.53 1.63 1.79 1.96 2.04
2.09 2.17 2.21 2.25 2.34 2.46 2.57 2.69 2.68 2.66 2.66 2.68 2.66 2.62 2.48 2.38 2.48 2.41 2.19 2.14 2.19 2.23 2.16 1.98 1.81 1.71 1.57 1.48 1.47 1.51 1.55 1.59 1.54 1.52 1.60 1.67 1.66 1.56 1.52 1.58 1.81 1.91 1.90
2.10 2.08 2.10 2.15 2.21 2.21 2.29 2.34 2.37 2.24 2.12 2.01 1.97 1.97 1.91 1.96 2.11 2.01 1.94 2.01 2.12 2.18 2.00 1.84 1.82 1.79 1.71 1.70 1.72 1.71 1.71 1.71 1.67 1.71 1.74 1.77 1.76 1.69 1.63 1.66 1.81 1.91 1.90
2.37 2.29 2.21 2.14 2.14 2.16 2.18 2.26 2.23 2.12 1.98 1.82 1.71 1.64 1.58 1.65 1.75 1.75 1.78 1.90 2.06 2.15 1.94 1.89 1.86 1.84 1.76 1.74 1.80 1.80 1.73 1.73 1.80 1.82 1.83 1.84 1.94 1.99 1.99 1.95 1.96 2.08 2.08
2.49 2.42 2.26 2.12 2.06 2.07 2.09 2.14 2.23 2.29 2.20 2.00 1.78 1.62 1.51 1.44 1.49 1.63 1.80 1.90 1.93 1.92 1.81 1.84 1.82 1.84 1.86 1.88 1.89 1.88 1.85 1.85 1.87 1.89 1.96 2.01 2.12 2.20 2.26 2.22 2.16 2.15 2.18
2.33 2.22 2.10 2.06 2.05 2.05 2.11 2.15 2.13 2.18 2.15 2.09 1.93 1.78 1.67 1.56 1.55 1.63 1.67 1.61 1.70 1.78 1.80 1.79 1.76 1.76 1.81 1.85 1.85 1.87 1.88 1.94 2.00 2.09 2.12 2.18 2.25 2.28 2.23 2.19 2.17 2.26 2.29
2.39 2.36 2.16 2.09 2.20 2.24 2.24 2.27 2.23 2.29 2.31 2.22 2.01 1.80 1.71 1.57 1.45 1.49 1.51 1.61 1.78 1.81 1.79 1.74 1.74 1.75 1.82 1.90 1.95 1.96 1.99 2.04 2.12 2.24 2.25 2.27 2.32 2.30 2.22 2.21 2.29 2.34 2.30
2.31 2.30 2.22 2.10 2.16 2.32 2.35 2.35 2.33 2.35 2.33 2.29 2.13 1.95 1.83 1.58 1.54 1.58 1.65 1.75 1.85 1.83 1.81 1.76 1.73 1.68 1.68 1.75 1.82 1.86 1.91 2.00 2.05 2.12 2.20 2.26 2.32 2.32 2.26 2.30 2.38 2.47 2.52
2.16 2.09 1.96 1.82 1.90 2.01 2.09 2.11 2.16 2.16 2.19 2.19 2.12 1.93 1.83 1.60 1.60 1.64 1.69 1.77 1.81 1.81 1.76 1.73 1.68 1.59 1.57 1.61 1.70 1.85 1.93 1.95 2.01 2.12 2.17 2.22 2.32 2.33 2.40 2.47 2.50 2.56 2.63
1.92 1.88 1.77 1.62 1.62 1.78 1.84 1.91 1.98 1.97 1.97 1.96 1.87 1.78 1.72 1.65 1.62 1.60 1.63 1.65 1.69 1.70 1.67 1.65 1.62 1.60 1.65 1.70 1.76 1.86 1.95 1.95 1.93 1.97 2.06 2.12 2.21 2.28 2.38 2.43 2.42 2.51 2.56
1.83 1.83 1.81 1.59 1.54 1.70 1.79 1.90 1.89 1.85 1.87 1.85 1.76 1.73 1.67 1.67 1.64 1.57 1.56 1.59 1.63 1.63 1.64 1.64 1.58 1.55 1.61 1.70 1.74 1.73 1.76 1.79 1.81 1.89 2.00 2.12 2.16 2.21 2.31 2.35 2.33 2.35 2.41
1.82 1.84 1.93 1.85 1.76 1.77 1.82 1.89 1.84 1.76 1.73 1.71 1.71 1.74 1.74 1.69 1.68 1.69 1.69 1.73 1.72 1.68 1.61 1.59 1.62 1.59 1.58 1.59 1.60 1.60 1.68 1.61 1.60 1.67 1.74 1.90 1.99 2.10 2.15 2.15 2.21 2.29 2.34
1.81 1.84 1.95 1.95 1.87 1.87 1.95 1.99 1.99 1.91 1.83 1.76 1.72 1.73 1.79 1.83 1.83 1.83 1.83 1.84 1.83 1.76 1.68 1.61 1.53 1.49 1.50 1.49 1.49 1.55 1.52 1.38 1.39 1.53 1.57 1.64 1.78 1.92 1.99 2.00 1.98 2.08 2.16